Regional Weather Roundup
Issued by NWS New Orleans/Baton Rouge, LA

Home | Current Version | Previous Version | Text Only | Print | Product List | Glossary Off
Versions: 1 2 3 4 5 6 7 8 9 10 11 12 13 14 15 16 17 18 19 20 21 22 23 24 25 26 27 28 29 30 31 32 33 34 35 36 37 38 39 40 41 42 43 44 45 46 47 48 49 50

303
ASUS44 KLIX 210705
RWRLIX
NEW ORLEANS REGIONAL WEATHER ROUNDUP
NATIONAL WEATHER SERVICE NEW ORLEANS LA
200 AM CDT MON APR 21 2014

NOTE: "FAIR" INDICATES FEW OR NO CLOUDS BELOW 12,000 FEET WITH NO
      SIGNIFICANT WEATHER AND/OR OBSTRUCTIONS TO VISIBILITY.
      SKY/WX - SKY CONDITION AND SIGNIFICANT WEATHER.
      TMP - AIR TEMPERATURE.     DP    - DEWPOINT TEMPERATURE.
      RH  - RELATIVE HUMIDITY.   PRES  - PRESSURE.
      HI  - HEAT INDEX.          WCI   - WIND CHILL INDEX.

*  THESE STATIONS ARE NOT NWS OR FAA STATIONS AND ARE NOT UNDER
   NWS QUALITY CONTROL.

LAZ038-040-048-061>063-065>067-069-210800-
SOUTHEAST LOUISIANA

CITY           SKY/WX    TMP DP  RH WIND       PRES   REMARKS
N.O. AUDUBON   NOT AVBL
N.O. INTL ARPT PTCLDY    62  58  86 S7        30.14S
N.O. LAKEFRONT CLEAR     63  59  87 S3        30.14F
N.O. DOWNTOWN*   N/A     64  55  72 S5        30.14F
SLIDELL        PTCLDY    58  55  90 CALM      30.14S
BATON ROUGE    CLEAR     61  54  77 NE3       30.11S
BOOTHVILLE     CLEAR     60  57  89 CALM      30.13F
BELLE CHASSE   PTCLDY   N/A N/A N/A SW3       30.13F
BOGALUSA*        N/A     61  58  88 SW3       30.16S
GALLIANO*      PTSUNNY   64  60  84 E5        30.13F
NEW ROADS*       N/A     61  57  85 CALM      30.11S
GONZALES*        N/A     63  63  99 CALM      30.12S
HAMMOND*       CLOUDY    64  59  82 SE6       30.15S
HOUMA*           N/A     61  59  91 E5        30.13S
PORT FOURCHON* CLOUDY    66  61  82 E9        30.14F

$$

MSZ070-080>082-210800-
SOUTHERN MISSISSIPPI

CITY           SKY/WX    TMP DP  RH WIND       PRES   REMARKS
MCCOMB         CLOUDY    61  58  90 SE8       30.13S
GULFPORT       CLEAR     62  57  83 CALM      30.13F
BILOXI         CLEAR     61  58  90 CALM      30.14S
PASCAGOULA     CLEAR     54  54 100 CALM      30.13F FOG

$$

COASTAL OBSERVATIONS
LAKE AND NEARSHORE STATIONS

STATION/POSITION TIME  TEMP    WIND        PRES    WAVE
                       AIR SEA DIR/SP/G            HT/PER
                 (UTC) (F)     (DEG/KT/KT) (MB)    (FT/S)
PASCAGOULA       0700   64     100/  3/  6 1019.6
WAVELAND YACHT   0700   64 71  160/  8/ 10 1019.7
GRAND ISLE       0700   64 69  120/  5/  9 1020.6
SOUTHWEST PASS   0700   63 59   80/ 10/ 12 1020.2
NEW CANAL        0700   64 67  190/  2/  2 1020.8
SHELL BEACH      0700   63 67  120/  5/  7 1020.1

OFFSHORE STATIONS

STATION/POSITION TIME  TEMP    WIND        PRES    WAVE
                       AIR SEA DIR/SP/G            HT/PER
                 (UTC) (F)     (DEG/KT/KT) (MB)    (FT/S)
64 S DAUPHIN ISL 0648   63 70   70/ 12/ 16 1020.0

$$




USA.gov is the U.S. government's official web portal to all federal, state and local government web resources and services.